loading
|
Showing default

NEONSAT-1, 59587

Orbit data source: Space-Track

NEONSAT-1, 59587 is a payload satellite owned by KAIST (KR) in SSO that was launched on Tue, 23 Apr 2024 UTC via an ELECTRON launch vehicle from the Rocket Lab Launch Complex (RLLC). Payloads include a variety of satellites, spacecraft, and rockets equipped with specific instruments for various scientific and technological missions. These include communications satellites like Starlink; space stations such as the ISS; scientific satellites like the Hubble; Earth observation satellites from companies like Planet Labs, Umbra, and HawkEye 360; GPS; miniature CubeSats for education and research; and military/defense satellites.

Loading next visibility...
Loading greatness...
NEONSAT-1 details
Identifier
59587, 2024-077A
Orbit
SSO
Last TLE update10 hours ago
Origin
Flag of KRKAIST (KR / SKOR)
ManufacturerKAIST/SATRHW
MissionOperational spacecraft
Bus & MotorNEONSAT, Unknown motor
Mass~100 kg wet, ~100 kg dry
Launch date (UTC)
2024-04-23 (5 months ago)
Launch vehicle
ELECTRON
Launch site
Rocket Lab Launch Complex (RLLC)
Object type
Payload
Rocket body
Debris
Shape & HBRUnknown
Radar Cross SectionLarge (>1 m²)

Expand to show TLE details & history

TLE from 10 hours ago
0 NEONSAT-1
1 59587U 24077A   24279.48361895  .00031131  00000-0  13918-2 0  9995
2 59587  97.4049 356.8930 0014913  74.0011 286.2866 15.21157939 24966
Epoch: 2024-10-05T11:36Z
Definitive object data (Epoch: 2024-10-05T11:36:24.677Z)
Latitude-0.00003°
Longitude168.15091°
Altitude502.575 km
Speed7.615 km/s
True Right ascension23h 47m 34s
True Declination0° 00' 00"
Sunlit
Object was in full shadow at TLE epoch
Predictive object data (real-time)
Latitude52.42508°
Longitude158.87784°
Altitude501.177 km
Speed7.624 km/s
Apparent Right ascension01h 24m 54s
Apparent Declination9° 51' 46"
Sunlit
Object is in full shadow
Predictive observer data (real-time)
Local Sidereal Time15:18:18
Azimuth34.228° NE
Elevation-33.717°
Doppler factor1
Orbital elements
Apogee509.567 km
Perigee489.055 km
Semi-major axis6,877.448 km
Eccentricity0.0014913
Inclination97.4049°
RAAN356.893°
Arg. of periapsis74.0011°
True anomaly286.12248°
Mean anomaly286.2866°
Eccentric anomaly286.20455°
Mean motion3.80542 °/min
BSTAR0.0013918
Period94.6 mins
No data available
No data available
Other satellites on launch #77 in the year 2024 (2024-04-23 UTC)

NEONSAT-1 Visibility forecast

Observer location: 39.9160978°, -105.1181434

NEONSAT-1 is not visible in the next 10 days
Span
Click to sort rows by Start time (UTC) header in descending order
Start Az.
Max El. time (UTC)
Max El. Az.
Max El.
End time (UTC)
End Az.